NOAA 16 DEB, 42387

Orbit data source: Space-Track

NOAA 16 DEB, 42387 is space debris in SSO originally from a launch on Thu, 21 Sep 2000 UTC launched from the Air Force Western Test Range (AFWTR). Debris objects in space refer to the collection of defunct objects orbiting the Earth. Examples of debris include non-operational satellites, rocket bodies, and fragments generated from explosions, collisions, or faulty payload assembly.

Loading next visibility...
NOAA 16 DEB details
Identifier
42387, 2000-055SF
Orbit
SSO
Last TLE update14 hours ago
Origin
Flag of USNOAA (US)
ManufacturerUnknown
MissionSpacecraft
Bus & MotorUnknown
MassUnknown
Launch date (UTC)
2000-09-21 (24 years ago)
Launch vehicleUnknown
Launch site
Air Force Western Test Range (AFWTR)
Object type
Payload
Rocket body
Debris
Shape & HBRUnknown
Radar Cross SectionSmall (<0.1 m²)

Expand to show TLE details & history

TLE from 14 hours ago
0 NOAA 16 DEB
1 42387U 00055SF  24361.03092227  .00014684  00000-0  53360-2 0  9997
2 42387  98.8182 104.9387 0013179  33.3499 326.8512 14.33279334458245
Epoch: 2024-12-26T00:44Z
Definitive object data (Epoch: 2024-12-26T00:44:31.684Z)
Latitude-0.00002°
Longitude-1.20948°
Altitude775.822 km
Speed7.47 km/s
True Right ascension06h 59m 45s
True Declination0° 00' 00"
Sunlit
Object was in full shadow at TLE epoch
Visualization TLE readout
Latitude-29.20295°
Longitude174.45238°
Altitude801.06 km
Speed7.447 km/s
Apparent Right ascension21h 50m 40s
Apparent Declination-51° 38' 37"
Sunlit
Object is in daylight
Visualization observer readout
Local Sidereal Time14:29:04
Azimuth128.5° SE
Elevation-41.995°
Doppler factor1
Orbital elements
Apogee altitude787.367 km
Perigee altitude768.505 km
Semi-major axis7,156.073 km
Eccentricity0.0013179
Inclination98.8182°
RAAN104.9387°
Arg. of periapsis33.3499°
True anomaly326.76851°
Mean anomaly326.8512°
Eccentric anomaly326.80986°
Mean motion3.58535 °/min
BSTAR0.005336
Orbital period100.41 mins
Loading maneuver chart data...
Loading historical data...
Loading historical data...
Loading historical data...
Loading historical data...
Loading historical data...
Loading historical data...
Loading historical data...

NOAA 16 DEB Visibility forecast

Observer location: undefined°, undefined

Span
Click to sort rows by Start time (UTC) header in descending order
Start Az.
Max El. time (UTC)
Max El. Az.
Max El.
End time (UTC)
End Az.
9 mins2024-12-26 19:45:07.621Z24.309° NE2024-12-26 19:49:07.621Z86.379° E39.888°2024-12-26 19:54:07.621Z179.398° S
5 mins2024-12-26 21:26:07.621Z325.519° NNW2024-12-26 21:28:07.621Z298.465° NW16.946°2024-12-26 21:31:07.621Z260.342° W
8 mins2024-12-27 07:02:07.621Z159.346° S2024-12-27 07:05:07.621Z105.325° ESE44.509°2024-12-27 07:10:07.621Z348.671° N
|